When you browse on this site, cookies collect data to enhance your experience and personalize the content and advertising you see.
Visit our Privacy Policy to learn more. By continuing to use the site, you agree to this use of cookies and data.
  • In Lithuania
  • List of Countries
  • For 7 days
  • Water Temperature
  • Satellite Maps
  • Weather Map
  • Weather Widgets
  • user-avatar
    Login

    Hourly Weather Kirov

    Today, 26 March, Tuesday

    Time Temperature Precipitation Wind Pressure Humidity
    00:00 +5°C° 0 mm 2 mps 755 mmHg 73%
    01:00 +5°C° 0 mm 2 mps 755 mmHg 73%
    02:00 +5°C° 0 mm 2 mps 755 mmHg 74%
    03:00 +4°C° 0 mm 3 mps 755 mmHg 75%
    04:00 +3°C° 0 mm 3 mps 755 mmHg 77%
    05:00 +3°C° 0 mm 3 mps 755 mmHg 78%
    06:00 +3°C° 0 mm 3 mps 755 mmHg 80%
    07:00 +4°C° 0 mm 3 mps 755 mmHg 75%
    08:00 +5°C° 0 mm 4 mps 755 mmHg 70%
    09:00 +6°C° 0 mm 4 mps 755 mmHg 65%
    10:00 +8°C° 0 mm 4 mps 755 mmHg 58%
    11:00 +10°C° 0 mm 4 mps 755 mmHg 52%
    12:00 +12°C° 0 mm 4 mps 755 mmHg 45%
    13:00 +12°C° 0 mm 4 mps 755 mmHg 43%
    14:00 +13°C° 0 mm 4 mps 754 mmHg 41%
    15:00 +14°C° 0 mm 3 mps 754 mmHg 39%
    16:00 +13°C° 0 mm 3 mps 754 mmHg 42%
    17:00 +14°C° 0 mm 2 mps 754 mmHg 45%
    18:00 +13°C° 0 mm 2 mps 753 mmHg 47%
    19:00 +12°C° 0 mm 1 mps 754 mmHg 50%
    20:00 +11°C° 0 mm 1 mps 754 mmHg 52%
    21:00 +11°C° 0 mm 1 mps 754 mmHg 54%
    22:00 +10°C° 0 mm 1 mps 754 mmHg 56%
    23:00 +10°C° 0 mm 1 mps 753 mmHg 57%

    Tomorrow, 27 March, Wednesday

    Time Temperature Precipitation Wind Pressure Humidity
    00:00 +9°C° 0 mm 1 mps 753 mmHg 59%
    01:00 +8°C° 0 mm 1 mps 753 mmHg 61%
    02:00 +8°C° 0 mm 1 mps 753 mmHg 63%
    03:00 +7°C° 0 mm 1 mps 753 mmHg 65%
    04:00 +7°C° 0 mm 1 mps 753 mmHg 66%
    05:00 +7°C° 0 mm 1 mps 753 mmHg 67%
    06:00 +6°C° 0 mm 1 mps 752 mmHg 69%
    07:00 +7°C° 0 mm 1 mps 753 mmHg 66%
    08:00 +7°C° 0 mm 2 mps 753 mmHg 63%
    09:00 +9°C° 0 mm 2 mps 753 mmHg 60%
    10:00 +9°C° 0 mm 3 mps 753 mmHg 61%
    11:00 +10°C° 0 mm 4 mps 753 mmHg 62%
    12:00 +10°C° 0 mm 5 mps 753 mmHg 64%
    13:00 +10°C° 0.1 mm 4 mps 753 mmHg 66%
    14:00 +10°C° 0.1 mm 4 mps 753 mmHg 68%
    15:00 +8°C° 0.1 mm 4 mps 753 mmHg 71%
    16:00 +9°C° 0 mm 3 mps 753 mmHg 69%
    17:00 +9°C° 0 mm 2 mps 753 mmHg 67%
    18:00 +9°C° 0 mm 2 mps 753 mmHg 64%
    19:00 +8°C° 0.4 mm 2 mps 754 mmHg 67%
    20:00 +8°C° 0.4 mm 3 mps 754 mmHg 71%
    21:00 +7°C° 0.4 mm 3 mps 755 mmHg 74%
    22:00 +6°C° 0 mm 4 mps 755 mmHg 73%
    23:00 +5°C° 0 mm 4 mps 755 mmHg 73%

    Day after tomorrow, 28 March, Thursday

    Time Temperature Precipitation Wind Pressure Humidity
    00:00 +5°C° 0 mm 5 mps 755 mmHg 73%
    01:00 +3°C° 0 mm 5 mps 755 mmHg 73%
    02:00 +2°C° 0 mm 6 mps 755 mmHg 73%
    03:00 +1°C° 0 mm 6 mps 755 mmHg 72%
    04:00 +2°C° 0.2 mm 6 mps 755 mmHg 74%
    05:00 +2°C° 0.2 mm 5 mps 756 mmHg 76%
    06:00 +2°C° 0.2 mm 5 mps 756 mmHg 78%
    07:00 +2°C° 0 mm 5 mps 757 mmHg 76%
    08:00 +2°C° 0 mm 5 mps 757 mmHg 74%
    09:00 +2°C° 0 mm 5 mps 758 mmHg 72%
    10:00 +3°C° 0 mm 5 mps 759 mmHg 67%
    11:00 +5°C° 0 mm 5 mps 759 mmHg 62%
    12:00 +6°C° 0 mm 4 mps 759 mmHg 57%
    13:00 +6°C° 0 mm 4 mps 759 mmHg 51%
    14:00 +6°C° 0 mm 4 mps 760 mmHg 46%
    15:00 +7°C° 0 mm 4 mps 760 mmHg 40%
    16:00 +6°C° 0 mm 4 mps 760 mmHg 40%
    17:00 +7°C° 0 mm 3 mps 760 mmHg 40%
    18:00 +7°C° 0 mm 3 mps 760 mmHg 39%
    19:00 +5°C° 0 mm 3 mps 761 mmHg 43%
    20:00 +5°C° 0 mm 2 mps 761 mmHg 48%
    21:00 +5°C° 0 mm 2 mps 762 mmHg 52%
    22:00 +4°C° 0 mm 2 mps 762 mmHg 55%
    23:00 +4°C° 0 mm 2 mps 762 mmHg 58%

    29 March, Friday

    Time Temperature Precipitation Wind Pressure Humidity
    00:00 +3°C° 0 mm 2 mps 763 mmHg 61%
    01:00 +3°C° 0 mm 2 mps 763 mmHg 63%
    02:00 +3°C° 0 mm 2 mps 763 mmHg 65%
    03:00 +2°C° 0 mm 2 mps 763 mmHg 67%
    04:00 +2°C° 0 mm 2 mps 763 mmHg 67%
    05:00 +1°C° 0 mm 2 mps 763 mmHg 68%
    06:00 +1°C° 0 mm 2 mps 763 mmHg 68%
    07:00 +2°C° 0 mm 2 mps 763 mmHg 62%
    08:00 +3°C° 0 mm 2 mps 764 mmHg 55%
    09:00 +5°C° 0 mm 2 mps 764 mmHg 48%
    10:00 +5°C° 0 mm 3 mps 763 mmHg 44%
    11:00 +5°C° 0 mm 4 mps 763 mmHg 40%
    12:00 +6°C° 0 mm 4 mps 763 mmHg 36%
    13:00 +7°C° 0 mm 4 mps 762 mmHg 36%
    14:00 +7°C° 0 mm 4 mps 762 mmHg 36%
    15:00 +7°C° 0 mm 5 mps 761 mmHg 35%
    16:00 +7°C° 0 mm 4 mps 761 mmHg 37%
    17:00 +7°C° 0 mm 4 mps 761 mmHg 38%
    18:00 +8°C° 0 mm 3 mps 761 mmHg 39%
    19:00 +7°C° 0 mm 3 mps 761 mmHg 43%
    20:00 +5°C° 0 mm 3 mps 761 mmHg 46%
    21:00 +4°C° 0 mm 3 mps 761 mmHg 50%
    22:00 +4°C° 0 mm 3 mps 761 mmHg 53%
    23:00 +4°C° 0 mm 3 mps 761 mmHg 56%

    30 March, Saturday

    Time Temperature Precipitation Wind Pressure Humidity
    00:00 +3°C° 0 mm 3 mps 760 mmHg 60%
    01:00 +3°C° 0 mm 3 mps 760 mmHg 60%
    02:00 +4°C° 0 mm 4 mps 760 mmHg 59%
    03:00 +4°C° 0 mm 4 mps 760 mmHg 59%
    04:00 +3°C° 0 mm 4 mps 760 mmHg 62%
    05:00 +3°C° 0 mm 3 mps 760 mmHg 65%
    06:00 +2°C° 0 mm 3 mps 760 mmHg 69%
    07:00 +4°C° 0 mm 3 mps 760 mmHg 67%
    08:00 +5°C° 0 mm 3 mps 760 mmHg 66%
    09:00 +7°C° 0 mm 3 mps 761 mmHg 65%
    10:00 +9°C° 0 mm 3 mps 760 mmHg 60%
    11:00 +10°C° 0 mm 3 mps 760 mmHg 56%
    12:00 +12°C° 0 mm 3 mps 760 mmHg 51%
    13:00 +12°C° 0 mm 3 mps 760 mmHg 51%
    14:00 +12°C° 0 mm 3 mps 760 mmHg 51%
    15:00 +12°C° 0 mm 3 mps 759 mmHg 51%
    16:00 +12°C° 0 mm 3 mps 759 mmHg 52%
    17:00 +13°C° 0 mm 2 mps 759 mmHg 54%
    18:00 +13°C° 0 mm 2 mps 759 mmHg 56%
    19:00 +12°C° 0 mm 2 mps 759 mmHg 59%
    20:00 +10°C° 0 mm 2 mps 759 mmHg 63%
    21:00 +9°C° 0 mm 3 mps 759 mmHg 66%
    22:00 +8°C° 0 mm 2 mps 759 mmHg 67%
    23:00 +8°C° 0 mm 2 mps 759 mmHg 68%

    31 March, Sunday

    Time Temperature Precipitation Wind Pressure Humidity
    00:00 +7°C° 0 mm 2 mps 759 mmHg 70%
    01:00 +7°C° 0 mm 2 mps 759 mmHg 70%
    02:00 +8°C° 0 mm 1 mps 758 mmHg 71%
    03:00 +7°C° 0 mm 1 mps 758 mmHg 72%
    04:00 +7°C° 0 mm 1 mps 758 mmHg 73%
    05:00 +7°C° 0 mm 1 mps 758 mmHg 74%
    06:00 +7°C° 0 mm 1 mps 757 mmHg 75%
    07:00 +8°C° 0 mm 1 mps 757 mmHg 70%
    08:00 +9°C° 0 mm 1 mps 757 mmHg 65%
    09:00 +10°C° 0 mm 2 mps 757 mmHg 60%
    10:00 +12°C° 0 mm 2 mps 757 mmHg 55%
    11:00 +14°C° 0 mm 2 mps 756 mmHg 49%
    12:00 +15°C° 0 mm 2 mps 756 mmHg 44%
    13:00 +16°C° 0 mm 3 mps 755 mmHg 41%
    14:00 +16°C° 0 mm 3 mps 754 mmHg 38%
    15:00 +17°C° 0 mm 3 mps 753 mmHg 35%
    16:00 +17°C° 0 mm 3 mps 753 mmHg 37%
    17:00 +16°C° 0 mm 3 mps 753 mmHg 39%
    18:00 +16°C° 0 mm 3 mps 752 mmHg 41%
    19:00 +13°C° 0 mm 3 mps 752 mmHg 44%
    20:00 +13°C° 0 mm 2 mps 752 mmHg 47%
    21:00 +12°C° 0 mm 2 mps 752 mmHg 50%
    22:00 +10°C° 0 mm 2 mps 752 mmHg 53%
    23:00 +10°C° 0 mm 3 mps 751 mmHg 56%
    Show more